OpenBCM V1.13 (Linux)

Packet Radio Mailbox

DB0FHN

[JN59NK Nuernberg]

 Login: GUEST





  
F1EBE  > KEPLER   16.02.03 17:24l 105 Lines 5488 Bytes #999 (0) @ EU
BID : 21837_F8KOH
Read: DB0FHN GUEST
Subj: 2L  Satell  Amat 045.jours
Path: DB0FHN<DB0RGB<OK0PPL<RZ6HXA<IK1ZNW<ON0BEL<F6FUB<F6CDD<F6KBI<F4CEP<
      F1HCI<F6KBF<F1FPP<F8KGK<F8KAE<F8KOH
Sent: 030215/0907Z @:F8KOH.FNOR.FRA.EU #:21837 [Vernon] FBB7.00i $:21837_F8KOH
From: F1EBE@F8KOH.FNOR.FRA.EU
To  : KEPLER@EU


AO-7                    
1 07530U 74089B   03044.66387538 -.00000029  00000-0  10000-3 0  1493
2 07530 101.7611  92.4958 0012295  87.8730 272.3745 12.53564338292578
AO-10                   
1 14129U 83058B   03041.63642645  .00000117  00000-0  10000-3 0  9167
2 14129  25.9157 165.6251 6028355 326.7167   6.8087  2.05866882119909
UO-11                   
1 14781U 84021B   03045.21075823  .00001825  00000-0  26036-3 0   702
2 14781  98.1171  19.0999 0008337 221.0615 138.9970 14.77984718 15598
UO-14                   
1 20437U 90005B   03044.74485274  .00000143  00000-0  69831-4 0  1678
2 20437  98.2740  88.5894 0009947 213.8009 146.2540 14.31236185681801
AO-16                   
1 20439U 90005D   03044.69065068  .00000172  00000-0  80497-4 0  8512
2 20439  98.3187 100.1926 0010193 221.1714 138.8713 14.31469963681830
DO-17                   
1 20440U 90005E   03044.68051471  .00000241  00000-0  10582-3 0  7508
2 20440  98.3377 104.0640 0010100 221.7833 138.2576 14.31748235681906
WO-18                   
1 20441U 90005F   03044.88141049  .00000176  00000-0  81892-4 0   112
2 20441  98.3337 103.4708 0011026 219.1838 140.8549 14.31551861681912
LO-19                   
1 20442U 90005G   03044.72059433  .00000197  00000-0  89393-4 0  9656
2 20442  98.3481 106.3321 0011130 220.8650 139.1700 14.31714837681940
FO-20                   
1 20480U 90013C   03044.94634508  .00000021  00000-0  11862-3 0  4648
2 20480  99.0470   8.5588 0540693  14.3469 347.2321 12.83330166609924
RS-12/13                
1 21089U 91007A   03044.88149015  .00000075  00000-0  63542-4 0  4906
2 21089  82.9234 184.8530 0028080 301.7096  58.1322 13.74403715603143
UO-22                   
1 21575U 91050B   03045.19720912  .00000372  00000-0  13345-3 0  7256
2 21575  98.1408  37.5396 0008019 140.2206 219.9573 14.39151485607659
KO-23                   
1 22077U 92052B   03044.90301753 -.00000037  00000-0  10000-3 0  1677
2 22077  66.0871 135.5003 0015530 274.9907  84.9338 12.86408271493704
AO-27                   
1 22825U 93061C   03045.55121385  .00000172  00000-0  84204-4 0  4863
2 22825  98.2746  75.4523 0007514 272.1556  87.8769 14.28941904489309
IO-26                   
1 22826U 93061D   03045.16204965  .00000175  00000-0  85121-4 0  3082
2 22826  98.2765  76.1977 0008197 275.7746  84.2500 14.29164345489299
KO-25                   
1 22828U 93061F   03044.58346835  .00000133  00000-0  68040-4 0  4268
2 22828  98.2715  75.9107 0009099 252.1362 107.8826 14.29506288457411
POSAT                   
1 22829U 93061G   03044.59356601  .00000240  00000-0  10924-3 0  4505
2 22829  98.2732  76.5240 0008886 252.8083 107.2123 14.29765664489342
RS-15                   
1 23439U 94085A   03044.94768411 -.00000042  00000-0  12993-4 0  6888
2 23439  64.8154  48.9543 0146897 116.1058 245.5064 11.27547626335076
FO-29                   
1 24278U 96046B   03044.95614347  .00000037  00000-0  75420-4 0  5794
2 24278  98.5330 196.8012 0350110 228.3786 128.6871 13.52872193320689
TO-31                   
1 25396U 98043C   03044.96706711 -.00000043  00000-0  00000-0 0  8725
2 25396  98.6282 122.1656 0003785 137.5467 222.6006 14.23509149238875
GO-32                   
1 25397U 98043D   03044.91677917  .00000060  00000-0  45693-4 0  1324
2 25397  98.6227 121.0012 0001848 134.6084 225.5246 14.22958357238832
SO-33                   
1 25509U 98061B   03044.68539972  .00001131  00000-0  21272-3 0  7794
2 25509  31.4288 180.7538 0358359 260.2233  95.7747 14.27427405224612
PO-34                   
1 25520U 98064B   03044.94460458  .00003449  00000-0  17547-3 0  6446
2 25520  28.4589 254.6590 0005591 297.4125  62.5922 15.13863402236889
ISS           
1 25544U 98067A   03045.47629606  .00025957  00000-0  33995-3 0  6898
2 25544  51.6341 276.5257 0012256 199.0733 224.2653 15.58328449241868
UO-36                   
1 25693U 99021A   03045.41821587  .00000914  00000-0  15065-3 0  7031
2 25693  64.5603  23.4900 0019796 315.5418  44.4095 14.76386140205641
OO-38                   
1 26063U 00004C   03044.67618573  .00000177  00000-0  81699-4 0  7209
2 26063 100.2136  98.3687 0036951 301.1050  58.6501 14.35479375159689
SO-41                   
1 26545U 00057A   03044.67729753  .00001672  00000-0  24009-3 0  4125
2 26545  64.5589  46.9563 0052396 239.6404 119.9527 14.78971219128506
MO-46                   
1 26548U 00057D   03044.43732435  .00002139  00000-0  28733-3 0  4175
2 26548  64.5580  40.6409 0045785 238.6835 120.9788 14.81255826128617
SO-42                   
1 26549U 00057E   03044.98052980  .00001415  00000-0  21056-3 0  6928
2 26549  64.5517  50.1147 0056936 239.5877 119.9601 14.77908363128460
AO-40                   
1 26609U 00072B   03042.26455231 -.00000067  00000-0  10000-3 0  3104
2 26609   8.0482  65.4048 7940113 142.6388 315.2305  1.25596326 10493
PCsat-44                   
1 26931U 01043C   03044.97623006  .00000199  00000-0  11090-3 0  4182
2 26931  67.0476 267.4380 0005010 264.6710  95.3823 14.29112994 71690
NO-45                   
1 26932U 01043D   03044.95484926  .00000117  00000-0  78466-4 0  4166
2 26932  67.0552 267.2001 0005104 240.5858 119.4726 14.29292806 71718
AO-49                   
1 27605U 02058A   03044.89029666  .00000515  00000-0  10396-3 0   570
2 27605  64.5524 211.4435 0034873 115.2981 245.1748 14.71353621  8125
SO-50                   
1 27607U 02058C   03044.94813746  .00001411  00000-0  25472-3 0   542
2 27607  64.5507 211.6757 0037665 112.3657 248.1439 14.69891000  8122



Read previous mail | Read next mail


 15.06.2026 19:52:36lGo back Go up